Location: Heiligenberg
(48.5381°N, 7.3897°E)
Time: 23:44:23
(UTC+00:00)

GP-B - Pass Details

Date: 26 May 2022
Orbit: 630 x 634 km, 89.8° (Epoch: 02 July)

Event Time Altitude Azimuth Distance (km) Brightness Sun altitude
Rises 00:49:57 0° 359° (N) 2,943 7.8 -18.0°
Reaches altitude 10° 00:52:12 10° 357° (N) 2,029 6.7 -17.8°
Maximum altitude 00:56:37 68° 275° (W) 685 3.1 -17.6°
Enters shadow 00:58:22 35° 203° (SSW) 1,020 3.6 -17.5°
